Torna al catalogo

COSMOS 2413

GLONASS

AttivoNavigazioneMEO
NORAD 28508·PAYLOAD·🇷🇺 Russia

Lanciato Dec 26, 2004 da Baikonur Cosmodrome

Loading…

Prossimi Passaggi (prossime 24 ore)

TLE

AggiornatoSource: Space-Track

Epoca: Sep 13, 2026, 11:05 UTC

1 28508U 04053A   26256.46187682 -.00000030  00000-0  00000-0 0  9992
2 28508  64.2755  57.1375 0005501 231.6057 135.6711  2.13103485169015

Traccia COSMOS 2413 in tempo reale con AllMySat

Download on the App Store